Olbia/Costa Smer, Italy

6:29 AM CET on December 08, 2016 (GMT +0100)
Costa Smeralda

Weather History for LIEO - November, 2013

Change the Weather History Date:

Friday, November 8, 2013

  Actual Average Record
Temperature  
Mean Temperature 63 °F -  
Max Temperature 75 °F 60 °F 75 °F (2003)
Min Temperature 51 °F 45 °F 37 °F (1998)
Degree Days  
Heating Degree Days 2    
Growing Degree Days 13 (Base 50)    
Moisture  
Dew Point 57 °F    
Average Humidity 85    
Maximum Humidity 100    
Minimum Humidity 61    
Precipitation  
Precipitation 0.00 in 0.09 in - ()
Sea Level Pressure  
Sea Level Pressure 30.05 in    
Wind  
Wind Speed 3 mph ()    
Max Wind Speed 9 mph    
Max Gust Speed -    
Averages and records for this station are not official NWS values.
T = Trace of Precipitation, MM = Missing Value Source: Averaged Metar Reports

Daily Weather History Graph

Daily Weather History Graph

Search for Another Location

Airport or City:

Trip Planner

Search our weather history database for the weather conditions in past years. The results will help you decide how hot, cold, wet, or windy it might be!

Date:

Astronomy

Nov. 08, 2013 Rise Set
Actual Time 7:00 AM CET 5:09 PM CET
Civil Twilight 6:31 AM CET 5:38 PM CET
Nautical Twilight 5:59 AM CET 6:11 PM CET
Astronomical Twilight 5:26 AM CET 6:43 PM CET
Moon 11:44 AM CET 10:11 PM CET
Length of Visible Light 11h 07m
Length of Day
10h 09m
Waxing Crescent, 30% of the Moon is Illuminated
Nov 8
Waxing Crescent
Nov 10
First Quarter
Nov 17
Full
Nov 25
Last Quarter
Dec 3
New

Hourly Weather History & Observations

Time (CET) Temp. Dew Point Humidity Pressure Visibility Wind Dir Wind Speed Gust Speed Precip Events Conditions
12:20 AM 59.0 °F 55.4 °F 88% 30.09 in - SW 3.5 mph - N/A   Clear
12:50 AM 57.2 °F 55.4 °F 94% 30.09 in - Calm Calm - N/A   Clear
1:20 AM 59.0 °F 55.4 °F 88% 30.09 in - South 4.6 mph - N/A   Clear
1:50 AM 55.4 °F 53.6 °F 94% 30.09 in - Variable 2.3 mph - N/A   Clear
2:50 AM 57.2 °F 55.4 °F 94% 30.09 in - SSW 4.6 mph - N/A   Clear
3:20 AM 55.4 °F 53.6 °F 94% 30.06 in - Variable 1.2 mph - N/A   Clear
3:50 AM 55.4 °F 53.6 °F 94% 30.06 in - SW 4.6 mph - N/A   Clear
4:20 AM 55.4 °F 55.4 °F 100% 30.06 in - SW 3.5 mph - N/A   Clear
4:50 AM 55.4 °F 53.6 °F 94% 30.06 in - South 4.6 mph - N/A   Clear
5:20 AM 51.8 °F 50.0 °F 94% 30.06 in - WSW 2.3 mph - N/A   Clear
5:50 AM 55.4 °F 53.6 °F 94% 30.06 in - SW 3.5 mph - N/A   Clear
6:20 AM 55.4 °F 53.6 °F 94% 30.06 in - South 5.8 mph - N/A   Clear
6:50 AM 51.8 °F 50.0 °F 94% 30.06 in - SSW 3.5 mph - N/A   Clear
7:20 AM 53.6 °F 51.8 °F 94% 30.06 in - WSW 4.6 mph - N/A   Clear
7:50 AM 53.6 °F 53.6 °F 100% 30.06 in - SSW 4.6 mph - N/A   Clear
8:20 AM 55.4 °F 53.6 °F 94% 30.06 in - South 3.5 mph - N/A   Clear
8:50 AM 59.0 °F 55.4 °F 88% 30.09 in - SW 3.5 mph - N/A   Clear
9:20 AM 62.6 °F 55.4 °F 77% 30.06 in - Variable 2.3 mph - N/A   Clear
9:50 AM 66.2 °F 55.4 °F 68% 30.06 in - Variable 1.2 mph - N/A   Clear
10:20 AM 69.8 °F 57.2 °F 64% 30.06 in - East 1.2 mph - N/A   Clear
10:50 AM 69.8 °F 57.2 °F 64% 30.06 in - NNW 3.5 mph - N/A   Clear
11:20 AM 71.6 °F 59.0 °F 64% 30.06 in - Variable 2.3 mph - N/A   Clear
11:50 AM 71.6 °F 62.6 °F 73% 30.06 in - NE 4.6 mph - N/A   Clear
12:20 PM 73.4 °F 62.6 °F 69% 30.04 in - NE 5.8 mph - N/A   Clear
12:50 PM 75.2 °F 60.8 °F 61% 30.04 in - ENE 6.9 mph - N/A   Clear
1:20 PM 73.4 °F 60.8 °F 65% 30.04 in - NE 8.1 mph - N/A   Clear
1:50 PM 73.4 °F 59.0 °F 61% 30.04 in - NE 9.2 mph - N/A   Clear
2:20 PM 73.4 °F 60.8 °F 65% 30.04 in - ENE 8.1 mph - N/A   Clear
2:50 PM 73.4 °F 60.8 °F 65% 30.04 in - ENE 8.1 mph - N/A   Clear
3:20 PM 71.6 °F 60.8 °F 69% 30.04 in - ENE 9.2 mph - N/A   Clear
3:50 PM 71.6 °F 60.8 °F 69% 30.04 in - ENE 6.9 mph - N/A   Clear
4:20 PM 71.6 °F 62.6 °F 73% 30.04 in - ENE 5.8 mph - N/A   Clear
4:50 PM 69.8 °F 62.6 °F 78% 30.04 in - East 4.6 mph - N/A   Clear
5:20 PM 66.2 °F 62.6 °F 88% 30.04 in - ENE 3.5 mph - N/A   Clear
5:50 PM 66.2 °F 62.6 °F 88% 30.04 in - NE 3.5 mph - N/A   Clear
6:20 PM 62.6 °F 60.8 °F 94% 30.04 in - Variable 3.5 mph - N/A   Clear
6:50 PM 62.6 °F 60.8 °F 94% 30.04 in - Variable 2.3 mph - N/A   Clear
7:20 PM 60.8 °F 59.0 °F 94% 30.04 in - South 3.5 mph - N/A   Clear
7:50 PM 59.0 °F 57.2 °F 94% 30.04 in - SSW 3.5 mph - N/A   Clear
8:20 PM 59.0 °F 57.2 °F 94% 30.04 in - SW 2.3 mph - N/A   Clear
8:50 PM 57.2 °F 55.4 °F 94% 30.04 in - Variable 1.2 mph - N/A   Clear
9:20 PM 55.4 °F 53.6 °F 94% 30.04 in - SW 3.5 mph - N/A   Clear
9:50 PM 57.2 °F 57.2 °F 100% 30.04 in - SW 4.6 mph - N/A   Clear
10:20 PM 57.2 °F 55.4 °F 94% 30.04 in - Variable 3.5 mph - N/A   Clear
10:50 PM 55.4 °F 53.6 °F 94% 30.01 in - SSW 3.5 mph - N/A   Clear
11:20 PM 55.4 °F 53.6 °F 94% 30.04 in - SW 5.8 mph - N/A   Clear
11:50 PM 55.4 °F 53.6 °F 94% 30.04 in - Variable 1.2 mph - N/A   Clear